2020-013C (45247 NORAD) Tracking and Keplerian Element Data

This shows tracking and keplerian element data for the satellite.

Feedback or suggestion? Click here.




ElementValue
Catalog45247
Name2020-013C
Epoch Orbit3
Epoch Day51.44424413
Epoch Year2020
RAAN311.3993
Inclination6.0084
Eccentricity0.7271306
Argument of Perigee178.9266
Mean Anonmoly154.3608
Mean Motion2.28373657
Decay Rate-1.53E-06
L11 45247U 20013C 20051.44424413 -.00000153 00000-0 10000-3 0 9996
L22 45247 6.0084 311.3993 7271306 178.9266 154.3608 2.28373657 39



Live tracking and technical data element details for 2020-013C (NORAD 45247). 2020-013C can be tracked NOW for your location showing map with azimuth and elevation plus other details from your city location.







IsCatalogInMostPopularTable: catalog: 45247, numindb: 171
Update: records affected: 1



GetName: 45247 2020-013C

Hit Count: updated at: Sun, 28 May 2023 05:50:18 GMT